Preview of NWS' New Version of Forecast
This preview is not operational and should not be used for support decisions.

Regional Weather Roundup (RWR)

Issued by National Weather Service (NWS)

                            
000
ASUS43 KLSX 211907
RWRMO 

WEATHER SUMMARY FOR MISSOURI
NATIONAL WEATHER SERVICE SPRINGFIELD MO
200 PM CDT SUN JUL 21 2019

NOTE: "FAIR" INDICATES FEW OR NO CLOUDS BELOW 12,000 FEET WITH NO
       SIGNIFICANT WEATHER AND/OR OBSTRUCTIONS TO VISIBILITY.
       CURRENT SKY AND/OR WEATHER CONDITIONS ARE NOT AVAILABLE FOR
       CHILLICOTHE AND FARMINGTON.

MOZ001>031-035>038-043-044-053-054-212000-
...NORTHERN AND WESTERN MISSOURI...
  
CITY           SKY/WX    TMP DP  RH WIND       PRES   REMARKS
KANSAS CTY INT MOSUNNY   81  70  69 E17       29.98F                  
KANSAS C DTWN  PTSUNNY   81  69  67 NE12      29.97F                  
LEE'S SUMMIT   CLOUDY    80  71  74 E12       30.00F                  
ST JOSEPH      CLOUDY    78  68  71 E10       29.98F                  
CHILLICOTHE      N/A     83  70  64 E5        30.00F                  
KIRKSVILLE     PTSUNNY   83  68  60 NW5       29.99F                  
     
$$
MOZ066>068-077>081-088>096-101>105-212000-
...SOUTHWEST MISSOURI...
  
CITY           SKY/WX    TMP DP  RH WIND       PRES   REMARKS
SPRINGFIELD    PTSUNNY   90  70  51 SW5       29.96F HX  95           
JOPLIN         SUNNY     91  74  57 S5        29.94F HX 100           
BRANSON        MOSUNNY   91  70  49 S7        29.99F HX  97           
               
$$
MOZ032>034-039>042-045>050-055>058-069>072-212000-
...CENTRAL MISSOURI...  
  
CITY           SKY/WX    TMP DP  RH WIND       PRES   REMARKS
COLUMBIA       MOSUNNY   87  70  56 NW3       29.98F HX  92           
ROLLA          SUNNY     87  70  56 CALM      29.99F HX  92           
SEDALIA        PTSUNNY   82  72  71 NE8       30.00F                  
WHITEMAN AFB   PTSUNNY   83  73  71 NE10      29.95F                  
OSAGE BEACH    SUNNY     89  70  53 NE8       29.98F HX  94           
               
$$
MOZ051-052-059>065-212000-
...EAST CENTRAL MISSOURI...
  
CITY           SKY/WX    TMP DP  RH WIND       PRES   REMARKS
ST LOUIS INTL  PTSUNNY   90  72  55 NW9       29.94F HX  97           
SPIRIT OF STL  MOSUNNY   89  73  59 NW9       29.92F HX  97           
ST CHARLES       N/A    N/A N/A N/A MISG      29.92F                  
                   
$$
MOZ072>076-082>087-097>100-106>115-212000-
...SOUTH CENTRAL AND SOUTHEAST MISSOURI...
  
CITY           SKY/WX    TMP DP  RH WIND       PRES   REMARKS
CAPE GIRARDEAU FAIR      79  72  79 SE5       29.92F                  
FARMINGTON     SUNNY     89  73  59 VRB5      29.96F HX  97           
POPLAR BLUFF   FAIR      90  79  70 S8        29.93F HX 106           
WEST PLAINS    MOSUNNY   90  72  55 S6        29.98F HX  97           
                                       
$$